Tracking 30986 objects as of 9-Jul-2025
HD Live streaming from Space Station
objects crossing your sky now

FALCON HEAVY DEB

Track FALCON HEAVY DEB now!


NORAD ID: 54222
Int'l Code: 2022-144D
Perigee: 36,182.2 km
Apogee: 36,208.8 km
Inclination: 4.8 °
Period: 1,456.7 minutes
Semi major axis: 42566 km
RCS: Unknown
Launch date: November 1, 2022
Source: United States (US)
Launch site: AIR FORCE EASTERN TEST RANGE (AFETR)

Note: This is SATELLITE DEBRIS
Your satellite tracking list
Your tracking list is empty




NASA's NSSDC Master Catalog

Two Line Element Set (TLE):
1 54222U 22144D   25188.51536693 -.00000188  00000-0  00000-0 0  9998
2 54222   4.8475  65.5964 0003130 209.6811 150.1320  0.98855638  8242
Source of the keplerian elements: AFSPC